Tracking 29892 objects as of 21-Nov-2024
HD Live streaming from Space Station
objects crossing your sky now

STARLINK-31358

Track STARLINK-31358 now!
10-day predictions
STARLINK-31358 is classified as:


NORAD ID: 58977
Int'l Code: 2024-031N
Perigee: 481.2 km
Apogee: 483.6 km
Inclination: 53.2 °
Period: 94.1 minutes
Semi major axis: 6853 km
RCS: Unknown
Launch date: February 15, 2023
Source: United States (US)
Launch site: AIR FORCE WESTERN TEST RANGE (AFWTR)
Your satellite tracking list
Your tracking list is empty




NASA's NSSDC Master Catalog

Two Line Element Set (TLE):
1 58977U 24031N   24324.50110033  .00001776  00000-0  72126-4 0  9997
2 58977  53.1611 343.6028 0001701  96.4388 263.6807 15.30185839 43796
Source of the keplerian elements: AFSPC